Regional Weather Roundup
Issued by NWS

Home | Current Version | Previous Version | Text Only | Print | Product List | Glossary On
Versions: 1 2 3 4 5 6 7 8 9 10 11 12 13 14 15 16 17 18 19 20 21 22 23 24 25 26 27 28 29 30 31 32 33 34 35 36 37 38 39 40 41 42 43 44 45 46 47 48 49 50
000
ASUS43 KMKX 252300
RWRWI

WISCONSIN REGIONAL WEATHER ROUNDUP
NATIONAL WEATHER SERVICE MILWAUKEE/SULLIVAN WI
500 PM CST TUE NOV 25 2014

NOTE: "FAIR" INDICATES FEW OR NO CLOUDS BELOW 12,000 FEET WITH NO
SIGNIFICANT WEATHER AND/OR OBSTRUCTIONS TO VISIBILITY.

WIZ001-002-006>008-014>016-023>028-260000-
NORTHWEST WISCONSIN

CITY           SKY/WX    TMP DP  RH WIND       PRES   REMARKS
SUPERIOR ARPT  PTCLDY    19  10  67 SW7       30.03R WCI  10
ASHLAND        CLEAR     18  13  80 SW6       30.04R WCI  10
HAYWARD        CLOUDY    19  14  81 S10       30.01S WCI   7
SIREN          CLOUDY    19  12  73 S5        30.03F WCI  13
CUMBERLAND     CLOUDY    19  12  73 S5        30.02S WCI  13
RICE LAKE      CLOUDY    21  13  73 S5        30.05S WCI  14
CHETEK         CLOUDY    20  13  72 CALM      30.04F
LADYSMITH      CLOUDY    22  15  74 SW7       30.04S WCI  13
EAU CLAIRE     NOT AVBL
MENOMONIE      CLOUDY    23  15  71 SE5       30.05F WCI  17
NEW RICHMOND   CLOUDY    22  14  71 S5        30.04S WCI  16
OSCEOLA        CLOUDY    22  14  71 S6        30.07S WCI  15
$$

WIZ003>005-009-010-017-018-260000-
NORTH CENTRAL WISCONSIN

CITY           SKY/WX    TMP DP  RH WIND       PRES   REMARKS
MANITOWISH WTR CLEAR     16  11  82 SW3       29.98R
ARBOR VITAE    CLEAR     19  14  80 CALM      29.98S
WOODRUFF       CLEAR     19  14  80 CALM      29.98S
RHINELANDER    CLEAR     11   7  84 SW5       30.00R WCI   3
EAGLE RIVER    CLEAR     15  10  80 CALM      29.97R
LAND O LAKES   CLEAR     15  10  80 CALM      29.98R
PHILLIPS       PTCLDY    17  11  80 S5        29.99S WCI   9
TOMAHAWK       CLEAR     15  12  88 CALM      30.02R
MEDFORD        CLEAR     15  10  80 SW3       30.02R
MERRILL        CLEAR     17  13  81 SW6       30.03R WCI   9
$$

WIZ029-030-035-036-043>047-260000-
CENTRAL WISCONSIN

CITY           SKY/WX    TMP DP  RH WIND       PRES   REMARKS
WAUSAU         CLEAR     17  11  77 W5        30.05R WCI  10
MOSINEE        NOT AVBL
MARSHFIELD     CLEAR     19  11  70 W5        30.05R WCI  12
STEVENS POINT  CLEAR     17  13  82 CALM      30.07R
WAUPACA        CLEAR     20  14  79 S5        30.09R WCI  13
WAUTOMA        NOT AVBL
WISC RAPIDS    CLEAR     17  12  80 S3        30.09R
CAMP DOUGLAS   NOT AVBL
$$

WIZ011>013-019>022-031-037>040-048>050-260000-
NORTHEAST WISCONSIN

CITY           SKY/WX    TMP DP  RH WIND       PRES   REMARKS
ANTIGO         CLEAR     13  10  87 SW7       30.02R WCI   2
SHAWANO        CLOUDY    23  17  77 SW5       30.07S WCI  17
OCONTO         CLOUDY    24  18  78 SW5       30.08R WCI  18
STURGEON BAY   CLOUDY    25  16  68 SW8       30.08R WCI  16
GREEN BAY      CLOUDY    22  16  78 SW8       30.10R WCI  12
MANITOWOC      NOT AVBL
APPLETON       CLOUDY    21  16  79 VRB5      30.09R WCI  15
CLINTONVILLE   CLOUDY    21  16  79 CALM      30.08R
OSHKOSH        CLOUDY    21  15  78 SW5       30.10R WCI  15
$$

WIZ032>034-041-042-053>061-260000-
SOUTHWEST WISCONSIN

CITY           SKY/WX    TMP DP  RH WIND       PRES   REMARKS
LA CROSSE      CLOUDY    25  13  60 S5        30.10R WCI  19
SPARTA         CLEAR     20  14  78 CALM      30.10R
VIROQUA        CLEAR     19  13  75 CALM      30.06R
BOSCOBEL       CLEAR     23  14  68 S3        30.12R
PRAIRIE DU CHI CLEAR     23  14  69 CALM      30.11S
PLATTEVILLE    CLEAR     20  16  82 CALM      30.11S
$$

WIZ056-057-062-063-064-067-068-260000-
SOUTH CENTRAL WISCONSIN

CITY           SKY/WX    TMP DP  RH WIND       PRES   REMARKS
REEDSBURG      PTCLDY    20  16  83 CALM      30.09S
BARABOO/DELLS  CLEAR     18  15  88 CALM      30.09S
LONE ROCK      NOT AVBL
MINERAL POINT  CLEAR     23  14  68 CALM      30.09S
MADISON        MOCLDY    22  16  78 CALM      30.12R
MIDDLETON      CLOUDY    24  17  74 CALM      30.12R
WATERTOWN      CLOUDY    22  18  86 SW5       30.11S WCI  15
MONROE         CLEAR     19  18  93 SW3       30.10S
JANESVILLE     PTCLDY    19  16  86 SW8       30.13S WCI   9
$$

WIZ051-052-058>065-066-070>072-260000-
SOUTHEAST WISCONSIN

CITY           SKY/WX    TMP DP  RH WIND       PRES   REMARKS
MILWAUKEE      CLOUDY    23  16  74 SW10      30.13R WCI  12
WAUKESHA       CLOUDY    19  16  86 SW9       30.13R WCI   9
MILWAUKEE/TIMM CLOUDY    21  18  86 W8        30.14R WCI  12
RACINE         CLOUDY    24  17  74 W5        30.15R WCI  18
BURLINGTON     CLOUDY    20  16  82 W7        30.13S WCI  11
KENOSHA        CLOUDY    23  17  78 SW10      30.13S WCI  12
FOND DU LAC    CLOUDY    21  14  74 W7        30.12R WCI  12
SHEBOYGAN      CLOUDY    22  15  75 W6        30.11S WCI  14
WEST BEND      CLOUDY    21  16  79 W7        30.11R WCI  13
JUNEAU         CLOUDY    21  16  81 SW7       30.12S WCI  12
$$

LSZ147-162-260000-
LAKE SUPERIOR

STATION/POSITION TIME  TEMP    WIND        PRES    WAVE
                       AIR SEA DIR/SP/G            HT/PER
                 (UTC) (F)     (DEG/KT/KT) (MB)    (FT/S)
DEVILS ISLAND    2200   23     240/ 10/ 15 1017.5R
PORT WING        2240   21     190/  6/  8 1016.9R
SAXON HARBOR     2200   23     210/  3/  9 1016.3S
$$

LMZ867-665-643>646-260000-
LAKE MICHIGAN

STATION/POSITION TIME  TEMP    WIND        PRES    WAVE
                       AIR SEA DIR/SP/G            HT/PER
                 (UTC) (F)     (DEG/KT/KT) (MB)    (FT/S)
CHAMBERS ISLAND  2200   27     280/  2/  7 1017.9R
N MID LAKE BUOY  2150   28 42  270/ 12/ 16 1017.9R   2/ 4
NORTHPORT PIER   2201   27     280/  3/ 11 1017.6R
SISTER BAY       2113          340/  9/ 10   N/A
KEWAUNEE LAKESHO 2200   23     280/  3/  8 1017.8R
SHEBOYGAN LAKESH 2200   23 36  260/  8/  9 1021.0R
PORT WASHINGTON  2200   23     270/  6/ 11 1021.0R
MILWAUKEE LAKESH 2200   24     230/ 13/ 15   N/A
S MID LAKE BUOY  2150   29 42  250/ 12/ 16 1020.9R   3/ 6
KENOSHA   LAKESH 2200   25     260/ 10/ 14 1020.3R
$$

TC  - TEMPERATURE IN CELSIUS
VSB - VISIBILITY IN STATUTE MILES
WCI - WIND CHILL INDEX
HX  - HEAT INDEX



USA.gov is the U.S. government's official web portal to all federal, state and local government web resources and services.